Knox, IN

2:46 PM CDT on September 19, 2017 (GMT -0500)
Starke County

Weather History for KOXI - September, 2013

Change the Weather History Date:

Sunday, September 1, 2013

  Actual Average (KRCR) Record (KRCR)
Temperature  
Mean Temperature 72 °F -  
Max Temperature 91 °F 80 °F 89 °F (2015)
Min Temperature 63 °F 57 °F 53 °F (2017)
Cooling Degree Days 7    
Growing Degree Days 22 (Base 50)    
Moisture  
Dew Point 69 °F    
Average Humidity 90    
Maximum Humidity 99    
Minimum Humidity 68    
Precipitation  
Precipitation 0.00 in - - ()
Sea Level Pressure  
Sea Level Pressure 29.78 in    
Wind  
Wind Speed 3 mph (SW)    
Max Wind Speed 12 mph    
Max Gust Speed -    
Visibility 5 miles    
Events      
Averages and records for this station are not official NWS values.
T = Trace of Precipitation, MM = Missing Value Source: NWS Daily Summary

Daily Weather History Graph

Daily Weather History Graph

Search for Another Location

Airport or City:

Trip Planner

Search our weather history database for the weather conditions in past years. The results will help you decide how hot, cold, wet, or windy it might be!

Date:

Astronomy

Sep. 01, 2013 Rise Set
Actual Time 6:13 AM CDT 7:19 PM CDT
Civil Twilight 5:44 AM CDT 7:47 PM CDT
Nautical Twilight 5:10 AM CDT 8:21 PM CDT
Astronomical Twilight 4:35 AM CDT 8:56 PM CDT
Moon 2:33 AM CDT (9/1) 4:57 PM CDT (9/1)
Length of Visible Light 14h 02m
Length of Day
13h 05m
Waning Crescent, 13% of the Moon is Illuminated
Sep 1
Waning Crescent
Sep 5
New
Sep 12
First Quarter
Sep 19
Full
Sep 26
Last Quarter

Hourly Weather History & Observations

Time (CDT) Temp. Heat Index Dew Point Humidity Pressure Visibility Wind Dir Wind Speed Gust Speed Precip Events Conditions
12:15 AM 67.8 °F - 66.9 °F 97% 29.80 in 0.5 mi North 4.6 mph - N/A   Mostly Cloudy
12:35 AM 66.9 °F - 66.2 °F 98% 29.80 in 0.8 mi Calm Calm - N/A   Unknown
12:55 AM 66.7 °F - 66.0 °F 98% 29.79 in 0.5 mi Calm Calm - N/A   Unknown
1:15 AM 66.6 °F - 66.0 °F 98% 29.79 in 0.8 mi Calm Calm - N/A   Unknown
1:35 AM 65.3 °F - 64.6 °F 98% 29.78 in 0.2 mi Calm Calm - N/A   Unknown
1:55 AM 64.6 °F - 63.9 °F 98% 29.78 in 0.2 mi Calm Calm - N/A   Overcast
2:15 AM 63.9 °F - 63.1 °F 97% 29.78 in 0.2 mi Calm Calm - N/A   Overcast
2:35 AM 64.6 °F - 63.9 °F 98% 29.78 in 0.2 mi Calm Calm - N/A   Overcast
2:55 AM 65.3 °F - 64.6 °F 98% 29.78 in 0.2 mi NW 3.5 mph - N/A   Overcast
3:15 AM 65.3 °F - 64.6 °F 98% 29.77 in 0.2 mi Calm Calm - N/A   Overcast
3:35 AM 65.5 °F - 64.6 °F 97% 29.77 in 0.2 mi Calm Calm - N/A   Overcast
3:55 AM 65.3 °F - 64.6 °F 98% 29.78 in 0.2 mi Calm Calm - N/A   Overcast
4:15 AM 65.7 °F - 65.1 °F 98% 29.77 in 0.2 mi Calm Calm - N/A   Overcast
4:35 AM 66.2 °F - 65.3 °F 97% 29.78 in 0.2 mi Calm Calm - N/A   Overcast
4:55 AM 66.2 °F - 65.5 °F 98% 29.78 in 0.2 mi Calm Calm - N/A   Overcast
5:15 AM 66.4 °F - 65.7 °F 98% 29.78 in 0.2 mi Calm Calm - N/A   Overcast
5:35 AM 66.4 °F - 65.7 °F 98% 29.78 in 0.2 mi Calm Calm - N/A   Overcast
5:55 AM 66.2 °F - 65.5 °F 98% 29.78 in 0.2 mi Calm Calm - N/A   Overcast
6:15 AM 66.2 °F - 65.3 °F 97% 29.78 in 0.2 mi Calm Calm - N/A   Overcast
6:35 AM 66.2 °F - 65.3 °F 97% 29.78 in 0.2 mi Calm Calm - N/A   Overcast
6:55 AM 66.2 °F - 65.3 °F 97% 29.78 in 0.2 mi Calm Calm - N/A   Overcast
7:15 AM 66.2 °F - 65.3 °F 97% 29.78 in 0.2 mi Calm Calm - N/A   Overcast
7:35 AM 66.4 °F - 65.7 °F 98% 29.77 in 0.5 mi SSE 3.5 mph - N/A   Overcast
7:55 AM 66.7 °F - 66.2 °F 98% 29.77 in 0.2 mi Calm Calm - N/A   Overcast
8:15 AM 67.3 °F - 66.7 °F 98% 29.78 in 0.2 mi Calm Calm - N/A   Overcast
8:35 AM 68.0 °F - 67.5 °F 98% 29.78 in 0.2 mi Calm Calm - N/A   Overcast
8:55 AM 68.7 °F - 68.5 °F 99% 29.78 in 0.2 mi SSW 3.5 mph - N/A   Overcast
9:15 AM 69.4 °F - 69.3 °F 99% 29.77 in 0.8 mi South 4.6 mph - N/A   Overcast
9:35 AM 70.0 °F - 69.8 °F 99% 29.78 in 2.0 mi South 4.6 mph - N/A   Overcast
9:55 AM 70.2 °F - 70.0 °F 99% 29.79 in 4.0 mi SW 3.5 mph - N/A   Overcast
10:15 AM 70.7 °F - 70.5 °F 99% 29.81 in 5.0 mi Calm Calm - N/A   Overcast
10:35 AM 71.4 °F - 71.2 °F 99% 29.82 in 10.0 mi SW 4.6 mph - N/A   Overcast
10:55 AM 72.9 °F - 72.1 °F 98% 29.81 in 10.0 mi WSW 5.8 mph - N/A   Overcast
11:15 AM 74.3 °F - 71.8 °F 92% 29.80 in 10.0 mi SW 4.6 mph - N/A   Overcast
11:35 AM 75.0 °F - 71.6 °F 89% 29.79 in 10.0 mi West 3.5 mph - N/A   Mostly Cloudy
11:55 AM 76.5 °F - 71.4 °F 84% 29.79 in 10.0 mi WSW 4.6 mph - N/A   Mostly Cloudy
12:15 PM 77.7 °F - 71.6 °F 81% 29.79 in 10.0 mi West 5.8 mph - N/A   Scattered Clouds
12:35 PM 79.0 °F - 72.0 °F 79% 29.79 in 10.0 mi West 3.5 mph - N/A   Scattered Clouds
12:55 PM 79.0 °F - 71.2 °F 77% 29.78 in 10.0 mi WNW 6.9 mph - N/A   Mostly Cloudy
1:15 PM 79.9 °F - 72.1 °F 77% 29.78 in 10.0 mi West 4.6 mph - N/A   Mostly Cloudy
1:35 PM 80.8 °F 84.9 °F 71.8 °F 74% 29.78 in 10.0 mi NW 5.8 mph - N/A   Mostly Cloudy
1:55 PM 81.3 °F 85.6 °F 71.4 °F 72% 29.78 in 10.0 mi West 6.9 mph - N/A   Mostly Cloudy
2:15 PM 81.0 °F 84.6 °F 70.5 °F 70% 29.78 in 10.0 mi West 6.9 mph - N/A   Scattered Clouds
2:35 PM 80.8 °F 84.7 °F 71.4 °F 73% 29.78 in 10.0 mi West 4.6 mph - N/A   Clear
2:55 PM 81.3 °F 84.8 °F 69.8 °F 68% 29.77 in 10.0 mi SW 6.9 mph - N/A   Scattered Clouds
3:15 PM 81.5 °F 85.1 °F 70.2 °F 68% 29.76 in 10.0 mi SW 8.1 mph - N/A   Scattered Clouds
3:35 PM 81.9 °F 86.2 °F 71.1 °F 70% 29.76 in 10.0 mi WSW 6.9 mph - N/A   Scattered Clouds
3:55 PM 81.5 °F 85.5 °F 71.1 °F 70% 29.75 in 10.0 mi SW 8.1 mph - N/A   Scattered Clouds
4:15 PM 81.5 °F 85.9 °F 71.6 °F 72% 29.75 in 10.0 mi WSW 6.9 mph - N/A   Scattered Clouds
4:35 PM 81.7 °F 86.0 °F 71.4 °F 71% 29.75 in 10.0 mi WSW 8.1 mph - N/A   Scattered Clouds
4:55 PM 81.0 °F 84.9 °F 71.2 °F 72% 29.76 in 10.0 mi WSW 8.1 mph - N/A   Scattered Clouds
5:15 PM 80.6 °F 84.6 °F 71.6 °F 74% 29.76 in 10.0 mi WSW 11.5 mph - N/A   Scattered Clouds
5:35 PM 79.2 °F - 71.6 °F 78% 29.77 in 7.0 mi WSW 9.2 mph - N/A   Clear
5:55 PM 78.1 °F - 71.1 °F 79% 29.76 in 7.0 mi WSW 9.2 mph - N/A   Clear
6:15 PM 77.7 °F - 70.5 °F 78% 29.76 in 7.0 mi WSW 6.9 mph - N/A   Clear
6:35 PM 77.0 °F - 70.3 °F 80% 29.76 in 7.0 mi SW 4.6 mph - N/A   Clear
6:55 PM 75.7 °F - 70.7 °F 84% 29.76 in 7.0 mi SSW 3.5 mph - N/A   Clear
7:15 PM 73.8 °F - 70.7 °F 90% 29.77 in 7.0 mi SSW 3.5 mph - N/A   Clear
7:35 PM 72.1 °F - 70.2 °F 93% 29.78 in 5.0 mi SW 4.6 mph - N/A   Clear
7:55 PM 70.9 °F - 69.8 °F 96% 29.78 in 5.0 mi SSW 5.8 mph - N/A   Clear
8:15 PM 70.7 °F - 69.4 °F 96% 29.78 in 5.0 mi SSW 4.6 mph - N/A   Clear
8:35 PM 70.7 °F - 69.4 °F 96% 29.78 in 7.0 mi SSW 4.6 mph - N/A   Clear
8:55 PM 70.5 °F - 69.3 °F 96% 29.78 in 7.0 mi SW 4.6 mph - N/A   Clear
9:15 PM 70.2 °F - 69.1 °F 96% 29.77 in 5.0 mi South 8.1 mph - N/A   Clear
9:35 PM 70.7 °F - 69.4 °F 96% 29.78 in 7.0 mi SSW 6.9 mph - N/A   Clear
9:55 PM 70.9 °F - 69.4 °F 95% 29.77 in 7.0 mi SSW 4.6 mph - N/A   Clear
10:15 PM 70.9 °F - 69.4 °F 95% 29.78 in 7.0 mi Calm Calm - N/A   Clear
10:35 PM 70.2 °F - 68.9 °F 96% 29.79 in 5.0 mi Calm Calm - N/A   Clear
10:55 PM 68.9 °F - 68.2 °F 98% 29.77 in 5.0 mi South 4.6 mph - N/A   Clear
11:15 PM 69.6 °F - 68.9 °F 98% 29.76 in 5.0 mi SSW 9.2 mph - N/A   Clear
11:35 PM 70.7 °F - 69.8 °F 97% 29.78 in 7.0 mi SW 10.4 mph - N/A   Clear
11:55 PM 71.1 °F - 70.0 °F 96% 29.76 in 5.0 mi South 6.9 mph - N/A   Scattered Clouds